Rutland, VT

11:58 PM EST on December 10, 2017 (GMT -0500)
Rutland State

Weather History for KRUT - October, 2012

Change the Weather History Date:

Wednesday, October 17, 2012

  Actual Average Record
Temperature  
Mean Temperature 44 °F -  
Max Temperature 59 °F - 80 °F (1956)
Min Temperature 28 °F - 20 °F (1978)
Degree Days  
Heating Degree Days 21    
Month to date heating degree days 243  
Since 1 July heating degree days 474  
Cooling Degree Days 0    
Month to date cooling degree days 0  
Year to date cooling degree days 411  
Moisture  
Dew Point 32 °F    
Average Humidity 65    
Maximum Humidity 92    
Minimum Humidity 38    
Precipitation  
Precipitation 0.00 in - 1.30 in (1955)
Month to date precipitation 1.20  
Year to date precipitation 19.43  
Sea Level Pressure  
Sea Level Pressure 29.95 in    
Wind  
Wind Speed 4 mph (ESE)    
Max Wind Speed 10 mph    
Max Gust Speed -    
Visibility 10 miles    
Events      
T = Trace of Precipitation, MM = Missing Value Source: NWS Daily Summary

Daily Weather History Graph

Daily Weather History Graph

Search for Another Location

Airport or City:

Trip Planner

Search our weather history database for the weather conditions in past years. The results will help you decide how hot, cold, wet, or windy it might be!

Date:

Astronomy

Oct. 17, 2012 Rise Set
Actual Time 7:08 AM EDT 6:04 PM EDT
Civil Twilight 6:39 AM EDT 6:33 PM EDT
Nautical Twilight 6:06 AM EDT 7:06 PM EDT
Astronomical Twilight 5:33 AM EDT 7:39 PM EDT
Moon 9:45 AM EDT (10/17) 7:32 PM EDT (10/17)
Length of Visible Light 11h 53m
Length of Day
10h 55m
Waxing Crescent, 7% of the Moon is Illuminated
Oct 17
Waxing Crescent
Oct 21
First Quarter
Oct 29
Full
Nov 6
Last Quarter
Nov 13
New

Hourly Weather History & Observations

Time (EDT) Temp. Windchill Dew Point Humidity Pressure Visibility Wind Dir Wind Speed Gust Speed Precip Events Conditions
12:15 AM 33.8 °F - 32.0 °F 93% 29.90 in 10.0 mi Calm Calm - N/A   Clear
12:35 AM 32.0 °F 28.7 °F 30.2 °F 93% 29.90 in 10.0 mi SSE 3.5 mph - N/A   Clear
12:55 AM 32.0 °F 26.4 °F 30.2 °F 93% 29.91 in 10.0 mi SE 5.8 mph - N/A   Clear
1:15 AM 33.8 °F 26.4 °F 30.2 °F 87% 29.91 in 10.0 mi SE 9.2 mph - N/A   Clear
1:35 AM 33.8 °F 28.6 °F 30.2 °F 87% 29.91 in 10.0 mi SE 5.8 mph - N/A   Clear
1:55 AM 32.0 °F - 30.2 °F 93% 29.90 in 10.0 mi Calm Calm - N/A   Clear
2:15 AM 30.2 °F 24.3 °F 28.4 °F 93% 29.91 in 10.0 mi SE 5.8 mph - N/A   Clear
2:35 AM 32.0 °F 26.4 °F 28.4 °F 87% 29.93 in 10.0 mi SE 5.8 mph - N/A   Clear
2:55 AM 32.0 °F 24.2 °F 30.2 °F 93% 29.92 in 10.0 mi ESE 9.2 mph - N/A   Clear
3:15 AM 33.8 °F 28.6 °F 30.2 °F 87% 29.92 in 10.0 mi SE 5.8 mph - N/A   Clear
3:35 AM 30.2 °F 25.4 °F 28.4 °F 93% 29.92 in 10.0 mi SE 4.6 mph - N/A   Clear
3:55 AM 30.2 °F 23.4 °F 28.4 °F 93% 29.93 in 10.0 mi SE 6.9 mph - N/A   Clear
4:15 AM 30.2 °F 25.4 °F 28.4 °F 93% 29.93 in 10.0 mi ESE 4.6 mph - N/A   Clear
4:35 AM 32.0 °F 26.4 °F 28.4 °F 87% 29.94 in 10.0 mi SE 5.8 mph - N/A   Clear
4:55 AM 32.0 °F - 28.4 °F 87% 29.95 in 10.0 mi Calm Calm - N/A   Clear
5:15 AM 32.0 °F 27.5 °F 28.4 °F 87% 29.95 in 10.0 mi SE 4.6 mph - N/A   Clear
5:35 AM 30.2 °F 25.4 °F 28.4 °F 93% 29.95 in 10.0 mi SSE 4.6 mph - N/A   Clear
5:55 AM 32.0 °F 27.5 °F 28.4 °F 87% 29.95 in 10.0 mi SSE 4.6 mph - N/A   Clear
6:15 AM 30.2 °F 26.7 °F 28.4 °F 93% 29.95 in 10.0 mi SE 3.5 mph - N/A   Clear
6:35 AM 30.2 °F - 28.4 °F 93% 29.96 in 10.0 mi Calm Calm - N/A   Clear
6:55 AM 30.2 °F 24.3 °F 28.4 °F 93% 29.96 in 10.0 mi SE 5.8 mph - N/A   Clear
7:15 AM 30.2 °F 26.7 °F 28.4 °F 93% 29.97 in 10.0 mi ESE 3.5 mph - N/A   Clear
7:55 AM 30.2 °F 26.7 °F 28.4 °F 93% 29.96 in 10.0 mi SE 3.5 mph - N/A   Clear
8:15 AM 30.2 °F 25.4 °F 28.4 °F 93% 29.98 in 10.0 mi SSE 4.6 mph - N/A   Clear
8:35 AM 33.8 °F 30.8 °F 32.0 °F 93% 29.98 in 10.0 mi ESE 3.5 mph - N/A   Clear
8:55 AM 35.6 °F - 30.2 °F 81% 29.97 in 10.0 mi Calm Calm - N/A   Clear
9:15 AM 37.4 °F - 33.8 °F 87% 29.97 in 10.0 mi Calm Calm - N/A   Clear
9:35 AM 37.4 °F - 33.8 °F 87% 29.99 in 10.0 mi Calm Calm - N/A   Clear
9:55 AM 39.2 °F - 33.8 °F 81% 29.99 in 10.0 mi Calm Calm - N/A   Clear
10:15 AM 41.0 °F - 35.6 °F 81% 29.99 in 10.0 mi Calm Calm - N/A   Clear
10:35 AM 44.6 °F - 33.8 °F 66% 29.98 in 10.0 mi Calm Calm - N/A   Clear
10:55 AM 44.6 °F - 33.8 °F 66% 29.98 in 10.0 mi Calm Calm - N/A   Clear
11:15 AM 46.4 °F 45.2 °F 35.6 °F 66% 29.98 in 10.0 mi NNE 3.5 mph - N/A   Clear
11:35 AM 48.2 °F - 35.6 °F 62% 29.98 in 10.0 mi North 3.5 mph - N/A   Clear
11:55 AM 48.2 °F - 32.0 °F 54% 29.97 in 10.0 mi NE 3.5 mph - N/A   Clear
12:15 PM 48.2 °F - 30.2 °F 50% 29.96 in 10.0 mi Calm Calm - N/A   Clear
12:55 PM 51.8 °F - 30.2 °F 44% 29.95 in 10.0 mi Calm Calm - N/A   Clear
1:15 PM 51.8 °F - 30.2 °F 44% 29.94 in 10.0 mi WNW 3.5 mph - N/A   Clear
1:35 PM 53.6 °F - 30.2 °F 41% 29.94 in 10.0 mi NNE 3.5 mph - N/A   Clear
1:55 PM 53.6 °F - 28.4 °F 38% 29.93 in 10.0 mi Calm Calm - N/A   Clear
2:15 PM 55.4 °F - 28.4 °F 36% 29.93 in 10.0 mi NE 3.5 mph - N/A   Clear
2:35 PM 55.4 °F - 30.2 °F 38% 29.92 in 10.0 mi NNE 5.8 mph - N/A   Clear
2:55 PM 55.4 °F - 32.0 °F 41% 29.92 in 10.0 mi Calm Calm - N/A   Clear
3:15 PM 55.4 °F - 33.8 °F 44% 29.92 in 10.0 mi NNE 3.5 mph - N/A   Clear
3:35 PM 57.2 °F - 33.8 °F 41% 29.92 in 10.0 mi North 4.6 mph - N/A   Clear
3:55 PM 57.2 °F - 33.8 °F 41% 29.91 in 10.0 mi NNE 3.5 mph - N/A   Clear
4:15 PM 57.2 °F - 33.8 °F 41% 29.91 in 10.0 mi Calm Calm - N/A   Clear
4:35 PM 57.2 °F - 33.8 °F 41% 29.91 in 10.0 mi Calm Calm - N/A   Clear
4:55 PM 57.2 °F - 33.8 °F 41% 29.92 in 10.0 mi North 4.6 mph - N/A   Clear
5:15 PM 57.2 °F - 35.6 °F 44% 29.92 in 10.0 mi NNW 3.5 mph - N/A   Clear
5:35 PM 55.4 °F - 35.6 °F 47% 29.93 in 10.0 mi NNW 3.5 mph - N/A   Clear
5:55 PM 53.6 °F - 35.6 °F 51% 29.93 in 10.0 mi NNW 4.6 mph - N/A   Clear
6:15 PM 51.8 °F - 35.6 °F 54% 29.93 in 10.0 mi ESE 4.6 mph - N/A   Clear
6:55 PM 46.4 °F 42.9 °F 37.4 °F 71% 29.95 in 10.0 mi SE 6.9 mph - N/A   Clear
7:55 PM 46.4 °F 41.5 °F 37.4 °F 71% 29.96 in 10.0 mi SE 10.4 mph - N/A   Clear
8:15 PM 46.4 °F 43.5 °F 37.4 °F 71% 29.97 in 10.0 mi SE 5.8 mph - N/A   Partly Cloudy
8:35 PM 46.4 °F 42.9 °F 35.6 °F 66% 29.97 in 10.0 mi SE 6.9 mph - N/A   Mostly Cloudy
8:55 PM 46.4 °F 42.9 °F 35.6 °F 66% 29.97 in 10.0 mi SSE 6.9 mph - N/A   Overcast
9:15 PM 46.4 °F 42.9 °F 35.6 °F 66% 29.97 in 10.0 mi SE 6.9 mph - N/A   Overcast
9:35 PM 46.4 °F 42.4 °F 35.6 °F 66% 29.97 in 10.0 mi SE 8.1 mph - N/A   Overcast
9:55 PM 46.4 °F 43.5 °F 37.4 °F 71% 29.97 in 10.0 mi SSE 5.8 mph - N/A   Overcast
10:15 PM 46.4 °F 43.5 °F 37.4 °F 71% 29.97 in 10.0 mi SE 5.8 mph - N/A   Overcast
10:35 PM 46.4 °F 43.5 °F 37.4 °F 71% 29.97 in 10.0 mi SSE 5.8 mph - N/A   Overcast
10:55 PM 48.2 °F - 35.6 °F 62% 29.97 in 10.0 mi SSE 5.8 mph - N/A   Overcast
11:15 PM 46.4 °F 44.3 °F 37.4 °F 71% 29.98 in 10.0 mi SSE 4.6 mph - N/A   Overcast
11:35 PM 46.4 °F - 35.6 °F 66% 29.97 in 10.0 mi Calm Calm - N/A   Overcast
11:55 PM 46.4 °F 45.2 °F 35.6 °F 66% 29.98 in 10.0 mi SE 3.5 mph - N/A   Overcast